Flag for U.S.A. Weather past 2 weeks in Helena, Montana, U.S.A.

Now
55 °F

Sunny.


Feels Like: 55 °F
Forecast: 36 / 68 °F
Wind: No wind

Location: Helena Regional Airport

Current Time: Oct 25, 2014 at 4:22:23 PM

Latest Report: Oct 25, 2014 at 3:53 PM


Visibility: 10 mi

Pressure: 29.82 "Hg

Humidity: 62%

Dew point: 42 °F

Location of HelenaLocation

Historic Weather in Helena — Graph

°F

Helena temperature yesterday

Maximum temperature yesterday: 57 °F (at 1:53 PM)
Minimum temperature yesterday: 44 °F (at 11:53 PM)
Average temperature yesterday: 51 °F

Past Weeks' High & Low Weather Summary

 TemperatureHumidityPressure
High75 °F (Oct 20, 5:53 PM)93% (Oct 25, 5:53 AM)30.23 "Hg (Oct 25, 5:53 AM)
Low32 °F (Oct 17, 6:53 AM)16% (Oct 15, 2:53 PM)29.51 "Hg (Oct 15, 2:53 PM)
Average52 °F54%29.98 "Hg
* Reported Oct 10 2:53 PM — Oct 25 2:53 PM, Helena, Weather by CustomWeather, © 2014

Note: Actual official high and low records may vary slightly from our data, if they occured in-between our weather recording intervals... More about our weather records

Advertising

Helena weather history for previous 24 hours

 ConditionsComfort  
Time TempWeatherWind HumidityBarometerVisibility
2:53 PM
Oct 25
53 °FSunny.5 mph66%29.86 "Hg10 mi
1:53 PM52 °FSunny.3 mph66%29.90 "Hg10 mi
12:53 PM49 °FSunny.3 mph74%29.93 "Hg10 mi
11:53 AM47 °FSunny.No wind74%29.96 "Hg10 mi
10:53 AM43 °FPartly sunny.3 mph82%30.01 "Hg10 mi
9:53 AM40 °FPartly sunny.No wind89%30.03 "Hg10 mi
8:53 AM38 °FClear.No wind90%30.05 "Hg10 mi
7:53 AM36 °FPassing clouds.No wind89%30.06 "Hg10 mi
7:02 AM37 °FPassing clouds.No wind87%30.00 "Hg10 mi
6:53 AM37 °FPassing clouds.3 mph89%30.06 "Hg10 mi
5:53 AM37 °FClear.No wind93%30.07 "Hg10 mi
4:53 AM38 °FClear.No wind90%30.08 "Hg10 mi
3:53 AM40 °FClear.No wind86%30.09 "Hg10 mi
2:53 AM41 °FClear.5 mph86%30.09 "Hg10 mi
1:53 AM40 °FClear.3 mph89%30.10 "Hg10 mi
12:53 AM42 °FClear.No wind82%30.12 "Hg10 mi
11:53 PM
Oct 24
44 °FClear.No wind79%30.12 "Hg10 mi
10:53 PM46 °FClear.No wind77%30.13 "Hg10 mi
9:53 PM48 °FPassing clouds.6 mph77%30.12 "Hg10 mi
8:53 PM50 °FOvercast.3 mph74%30.12 "Hg10 mi
7:53 PM50 °FPartly cloudy.No wind77%30.13 "Hg10 mi
6:53 PM52 °FOvercast.No wind66%30.12 "Hg10 mi
5:53 PM53 °FMostly cloudy.8 mph64%30.11 "Hg10 mi
4:53 PM55 °FPassing clouds.8 mph57%30.10 "Hg10 mi
Weather by CustomWeather, © 2014

See weather overviewHow to use our weather pages